TimeCDT,TemperatureF,Dew PointF,Humidity,Sea Level PressureIn,VisibilityMPH,Wind Direction,Wind SpeedMPH,Gust SpeedMPH,PrecipitationIn,Events,Conditions,WindDirDegrees,DateUTC
12:15 AM,70.7,69.4,96,29.92,5.0,Calm,Calm,-,N/A,,Overcast,0,2013-10-01 05:15:00
12:35 AM,70.7,69.3,95,29.92,5.0,Calm,Calm,-,N/A,,Overcast,0,2013-10-01 05:35:00
12:55 AM,70.7,69.4,96,29.93,7.0,ESE,3.5,-,N/A,,Overcast,110,2013-10-01 05:55:00
1:15 AM,70.7,69.4,96,29.93,7.0,Calm,Calm,-,N/A,,Mostly Cloudy,0,2013-10-01 06:15:00
1:35 AM,70.3,68.9,95,29.93,7.0,Calm,Calm,-,N/A,,Mostly Cloudy,0,2013-10-01 06:35:00
1:55 AM,70.0,68.9,96,29.92,4.0,Calm,Calm,-,N/A,,Mostly Cloudy,0,2013-10-01 06:55:00
2:15 AM,69.6,68.4,96,29.92,5.0,Calm,Calm,-,N/A,,Mostly Cloudy,0,2013-10-01 07:15:00
2:35 AM,69.1,68.0,96,29.93,3.0,Calm,Calm,-,N/A,,Mostly Cloudy,0,2013-10-01 07:35:00
2:55 AM,69.3,68.2,96,29.93,5.0,Calm,Calm,-,N/A,,Scattered Clouds,0,2013-10-01 07:55:00
3:15 AM,69.3,68.2,96,29.92,7.0,Calm,Calm,-,N/A,,Scattered Clouds,0,2013-10-01 08:15:00
3:35 AM,69.4,68.2,96,29.92,7.0,Calm,Calm,-,N/A,,Scattered Clouds,0,2013-10-01 08:35:00
3:55 AM,70.0,68.9,96,29.92,10.0,Calm,Calm,-,N/A,,Mostly Cloudy,0,2013-10-01 08:55:00
4:15 AM,70.3,69.1,96,29.92,7.0,Calm,Calm,-,N/A,,Overcast,0,2013-10-01 09:15:00
4:35 AM,70.3,69.1,96,29.92,7.0,Calm,Calm,-,N/A,,Overcast,0,2013-10-01 09:35:00
4:55 AM,70.2,68.9,96,29.92,5.0,Calm,Calm,-,N/A,,Overcast,0,2013-10-01 09:55:00
5:15 AM,70.9,69.8,96,29.93,7.0,Calm,Calm,-,N/A,,Overcast,0,2013-10-01 10:15:00
5:35 AM,71.1,69.8,96,29.94,7.0,Calm,Calm,-,N/A,,Overcast,0,2013-10-01 10:35:00
5:55 AM,71.1,69.8,96,29.95,7.0,Calm,Calm,-,N/A,,Overcast,0,2013-10-01 10:55:00
6:15 AM,71.2,70.0,96,29.95,7.0,Calm,Calm,-,N/A,,Overcast,0,2013-10-01 11:15:00
6:35 AM,71.6,70.2,95,29.96,7.0,Calm,Calm,-,N/A,,Overcast,0,2013-10-01 11:35:00
6:55 AM,71.6,70.3,96,29.96,7.0,Calm,Calm,-,N/A,,Overcast,0,2013-10-01 11:55:00
7:15 AM,71.6,70.2,95,29.97,5.0,Calm,Calm,-,N/A,,Overcast,0,2013-10-01 12:15:00
7:35 AM,71.1,69.8,96,29.97,4.0,Calm,Calm,-,N/A,,Mostly Cloudy,0,2013-10-01 12:35:00
7:55 AM,71.8,70.3,95,29.98,10.0,Calm,Calm,-,N/A,,Mostly Cloudy,0,2013-10-01 12:55:00
8:15 AM,72.5,70.9,95,29.98,7.0,Calm,Calm,-,N/A,,Overcast,0,2013-10-01 13:15:00
8:35 AM,72.9,71.2,95,29.99,10.0,Calm,Calm,-,N/A,,Overcast,0,2013-10-01 13:35:00
8:55 AM,73.4,71.8,95,29.99,10.0,ESE,4.6,-,N/A,,Scattered Clouds,120,2013-10-01 13:55:00
9:15 AM,76.1,73.0,90,29.98,10.0,ESE,5.8,-,N/A,,Scattered Clouds,110,2013-10-01 14:15:00
9:35 AM,77.0,73.0,88,29.99,10.0,ESE,4.6,-,N/A,,Mostly Cloudy,120,2013-10-01 14:35:00
9:55 AM,78.3,72.9,83,29.99,10.0,ESE,4.6,-,N/A,,Scattered Clouds,110,2013-10-01 14:55:00
10:15 AM,79.0,73.4,83,29.99,10.0,ESE,5.8,-,N/A,,Scattered Clouds,120,2013-10-01 15:15:00
10:35 AM,80.1,73.4,80,29.99,10.0,SE,6.9,-,N/A,,Scattered Clouds,130,2013-10-01 15:35:00
10:55 AM,82.0,73.6,75,30.00,10.0,ESE,6.9,-,N/A,,Scattered Clouds,120,2013-10-01 15:55:00
11:15 AM,82.8,73.4,73,30.00,10.0,ESE,4.6,-,N/A,,Mostly Cloudy,120,2013-10-01 16:15:00
11:35 AM,81.7,72.9,74,29.99,10.0,ESE,4.6,-,N/A,,Overcast,120,2013-10-01 16:35:00
11:55 AM,82.0,72.9,74,30.00,10.0,ESE,6.9,-,N/A,,Overcast,120,2013-10-01 16:55:00
12:15 PM,82.2,72.0,71,30.00,10.0,SE,5.8,-,N/A,,Mostly Cloudy,130,2013-10-01 17:15:00
12:35 PM,83.5,72.9,70,29.99,10.0,SE,4.6,-,N/A,,Scattered Clouds,140,2013-10-01 17:35:00
12:55 PM,84.0,72.1,67,29.98,10.0,SE,5.8,-,N/A,,Scattered Clouds,140,2013-10-01 17:55:00
1:15 PM,84.9,71.4,64,29.97,10.0,SE,6.9,-,N/A,,Scattered Clouds,140,2013-10-01 18:15:00
1:35 PM,86.4,69.8,58,29.96,10.0,SE,5.8,-,N/A,,Clear,130,2013-10-01 18:35:00
1:55 PM,82.8,69.3,64,29.95,10.0,SSE,4.6,-,N/A,,Scattered Clouds,160,2013-10-01 18:55:00
2:15 PM,80.1,71.4,75,29.96,10.0,SE,6.9,-,N/A,,Mostly Cloudy,130,2013-10-01 19:15:00
2:35 PM,77.9,72.3,83,29.95,10.0,Calm,Calm,-,N/A,,Mostly Cloudy,0,2013-10-01 19:35:00
2:55 PM,79.7,73.4,81,29.96,10.0,Calm,Calm,-,N/A,Thunderstorm,Thunderstorm,0,2013-10-01 19:55:00
3:15 PM,77.0,72.5,86,29.96,5.0,East,10.4,-,N/A,Rain-Thunderstorm,Heavy Thunderstorms and Rain,80,2013-10-01 20:15:00
3:35 PM,73.8,71.2,92,29.96,2.0,East,5.8,-,N/A,Rain-Thunderstorm,Light Thunderstorms and Rain,100,2013-10-01 20:35:00
3:55 PM,72.7,70.7,93,29.97,2.0,South,3.5,-,N/A,Rain-Thunderstorm,Thunderstorms and Rain,190,2013-10-01 20:55:00
4:15 PM,73.4,71.6,94,29.96,4.0,Calm,Calm,-,0.02,Rain-Thunderstorm,Thunderstorms and Rain,0,2013-10-01 21:15:00
4:35 PM,73.9,72.5,95,29.95,10.0,Calm,Calm,-,0.06,Rain,Light Rain,0,2013-10-01 21:35:00
4:55 PM,73.9,72.5,95,29.96,10.0,Calm,Calm,-,0.11,,Mostly Cloudy,0,2013-10-01 21:55:00
5:15 PM,74.3,72.7,95,29.96,10.0,Calm,Calm,-,0.04,,Mostly Cloudy,0,2013-10-01 22:15:00
5:35 PM,74.3,72.3,94,29.96,10.0,Calm,Calm,-,0.08,,Light Drizzle,0,2013-10-01 22:35:00
5:55 PM,75.2,72.7,92,29.97,10.0,East,4.6,-,0.12,Thunderstorm,Thunderstorm,100,2013-10-01 22:55:00
6:15 PM,75.2,72.9,92,29.97,10.0,SE,3.5,-,0.03,,Scattered Clouds,130,2013-10-01 23:15:00
6:35 PM,74.8,72.9,94,29.97,10.0,Calm,Calm,-,0.06,,Clear,0,2013-10-01 23:35:00
6:55 PM,74.3,72.5,94,29.96,10.0,Calm,Calm,-,0.09,,Clear,0,2013-10-01 23:55:00
7:15 PM,73.0,71.6,95,29.95,5.0,Calm,Calm,-,0.02,,Clear,0,2013-10-02 00:15:00
7:35 PM,72.7,71.4,96,29.96,7.0,Calm,Calm,-,0.05,,Clear,0,2013-10-02 00:35:00
7:55 PM,72.0,70.7,96,29.96,7.0,SE,3.5,-,0.07,,Clear,130,2013-10-02 00:55:00
8:15 PM,72.1,70.7,95,29.97,10.0,Calm,Calm,-,0.01,,Clear,0,2013-10-02 01:15:00
8:35 PM,71.8,70.3,95,29.98,10.0,Calm,Calm,-,0.03,,Clear,0,2013-10-02 01:35:00
8:55 PM,71.4,70.0,95,30.00,7.0,Calm,Calm,-,0.05,,Clear,0,2013-10-02 01:55:00
9:15 PM,71.1,69.8,96,30.00,7.0,Calm,Calm,-,0.01,,Clear,0,2013-10-02 02:15:00
9:35 PM,70.7,69.6,96,30.01,5.0,Calm,Calm,-,0.03,,Clear,0,2013-10-02 02:35:00
9:55 PM,70.7,69.6,96,30.00,5.0,Calm,Calm,-,0.04,,Clear,0,2013-10-02 02:55:00
10:15 PM,70.2,68.9,96,30.00,5.0,Calm,Calm,-,0.01,,Clear,0,2013-10-02 03:15:00
10:35 PM,70.9,69.8,96,30.00,10.0,Calm,Calm,-,0.02,,Clear,0,2013-10-02 03:35:00
10:55 PM,70.7,69.3,95,30.00,7.0,Calm,Calm,-,0.03,,Clear,0,2013-10-02 03:55:00
11:15 PM,70.7,69.3,95,30.00,7.0,Calm,Calm,-,N/A,,Clear,0,2013-10-02 04:15:00
11:35 PM,70.3,69.1,96,29.99,7.0,Calm,Calm,-,0.01,,Mostly Cloudy,0,2013-10-02 04:35:00
11:55 PM,70.7,69.3,95,29.99,7.0,Calm,Calm,-,0.01,,Overcast,0,2013-10-02 04:55:00